Location: Devore Heights
(34.2372°N, 117.4156°W)
Time: 06:54:58
(UTC+00:00)

Vanguard 1 Rocket - Pass Details

Date: 16 September 2024
Orbit: 650 x 4218 km, 34.3° (Epoch: 09 October)

Event Time Altitude Azimuth Distance (km) Brightness Sun altitude
Exits shadow 13:40:08 - 271° (W) 6,207 10.9 0.4°
Rises 13:40:17 0° 271° (W) 6,175 10.9 0.5°
Reaches altitude 10° 13:43:37 10° 272° (W) 5,530 10.7 1.2°
Maximum altitude 14:03:00 90° 189° (S) 3,923 10.7 5.2°
Drops below altitude 10° 14:29:49 10° 99° (E) 7,206 15.3 10.7°
Sets 14:34:58 0° 99° (E) 8,008 14.4 11.7°
